Photometre #649[NE_1.6_Dp] OHP_OBSERVATOIRE AOT

File : 20220824_649.hum

24/08/2022,11:56:47,TEMP=35.6,BA=5.48,STAT.b=15.5
24/08/2022,11:57:20,TEMP=35.6,BA=5.48,STAT.b=15.5
24/08/2022,12:10:15,TEMP=33.9,BA=5.52,STAT.D,ExtBa=13.51
24/08/2022,12:25:22,TEMP=34.1,BA=5.60,STAT.b=15.5
24/08/2022,12:40:16,TEMP=33.0,BA=5.56,STAT.F,ExtBa=13.73
24/08/2022,12:55:14,TEMP=32.7,BA=5.60,STAT.D,ExtBa=13.78
24/08/2022,13:10:14,TEMP=33.6,BA=5.52,STAT.D,ExtBa=13.80
24/08/2022,13:25:13,TEMP=33.8,BA=5.60,STAT.D,ExtBa=13.78
24/08/2022,13:40:15,TEMP=32.8,BA=5.52,STAT.F,ExtBa=13.77
24/08/2022,14:06:19,TEMP=33.7,BA=5.44,STAT.D,ExtBa=12.98
24/08/2022,14:10:13,TEMP=33.2,BA=5.52,STAT.D,ExtBa=13.15
24/08/2022,14:25:13,TEMP=31.7,BA=5.60,STAT.D,ExtBa=13.53
24/08/2022,14:40:15,TEMP=31.7,BA=5.52,STAT.F,ExtBa=13.59
24/08/2022,15:05:01,TEMP=32.7,BA=5.44,STAT.b=15.5
24/08/2022,15:05:32,TEMP=32.7,BA=5.44,STAT.b=15.5
24/08/2022,15:05:56,TEMP=32.3,BA=5.44,STAT.B,ExtBa=12.92
24/08/2022,15:36:34,TEMP=31.8,BA=5.60,STAT.B,ExtBa=13.52
24/08/2022,15:53:25,TEMP=31.4,BA=5.60,STAT.A,ExtBa=13.39
24/08/2022,16:07:02,TEMP=31.2,BA=5.60,STAT.A,ExtBa=13.53
24/08/2022,16:18:15,TEMP=31.2,BA=5.60,STAT.A,ExtBa=13.55
24/08/2022,16:27:42,TEMP=30.9,BA=5.60,STAT.A,ExtBa=13.57
24/08/2022,16:35:48,TEMP=30.9,BA=5.60,STAT.C,ExtBa=13.57
24/08/2022,16:46:13,TEMP=30.6,BA=5.48,STAT.b=15.0
24/08/2022,16:46:35,TEMP=30.6,BA=5.48,STAT.A,ExtBa=13.10
24/08/2022,16:48:57,TEMP=30.4,BA=5.48,STAT.A,ExtBa=13.17
24/08/2022,16:54:22,TEMP=29.8,BA=5.48,STAT.A,ExtBa=13.33
24/08/2022,16:59:12,TEMP=29.6,BA=5.48,STAT.A,ExtBa=13.42
24/08/2022,17:03:32,TEMP=29.5,BA=5.48,STAT.B,ExtBa=13.43
24/08/2022,17:12:36,TEMP=29.1,BA=5.44,STAT.A,ExtBa=13.01
24/08/2022,17:19:54,TEMP=28.6,BA=5.44,STAT.A,ExtBa=13.32
24/08/2022,17:25:49,TEMP=28.4,BA=5.48,STAT.A,ExtBa=13.42
24/08/2022,17:30:44,TEMP=28.1,BA=5.60,STAT.A,ExtBa=13.43
24/08/2022,17:34:55,TEMP=27.9,BA=5.60,STAT.A,ExtBa=13.45
24/08/2022,17:38:28,TEMP=27.8,BA=5.60,STAT.A,ExtBa=13.45